Flag for Germany Weather past 2 weeks in Lage, North Rhine-Westphalia, Germany

Now
52 °F

Drizzle. Low clouds.


Feels Like: 48 °F
Forecast: 42 / 53 °F
Wind: 9 mph from Southwest

Location: Bad Lippspringe

Current Time: Dec 19, 2014 at 12:15:41 AM

Latest Report: Dec 19, 2014 at 12:00 AM


Visibility: 6 mi

Pressure: 29.84 "Hg

Humidity: 96%

Dew point: 50 °F

Location of LageLocation

Historic Weather in Lage — Graph

°F

Lage temperature yesterday

Maximum temperature yesterday: 53 °F (at 8:00 PM)
Minimum temperature yesterday: 48 °F (at 12:00 AM)
Average temperature yesterday: 50 °F

Past Weeks' High & Low Weather Summary

 TemperatureHumidityPressure
High53 °F (Dec 18, 8:00 PM)100% (Dec 6, 11:00 AM)30.39 "Hg (Dec 6, 11:00 AM)
Low29 °F (Dec 3, 11:00 PM)60% (Dec 7, 3:00 PM)29.54 "Hg (Dec 12, 9:00 AM)
Average39 °F88%30.00 "Hg
* Reported Dec 3 11:00 PM — Dec 18 11:00 PM, Lage, Weather by CustomWeather, © 2014

Note: Actual official high and low records may vary slightly from our data, if they occured in-between our weather recording intervals... More about our weather records

Advertising

Lage weather history for previous 24 hours

 ConditionsComfort  
Time TempWeatherWind HumidityBarometerVisibility
11:00 PM
Dec 18
51 °FDrizzle. Low clouds.8 mph96%29.84 "Hg6 mi
10:00 PM51 °FRain. Low clouds.8 mph96%29.83 "Hg2 mi
9:00 PM52 °FDrizzle. Low clouds.10 mph94%29.83 "Hg9 mi
8:00 PM53 °FRain. Low clouds.9 mph97%29.81 "Hg1 mi
7:00 PM53 °FDrizzle. Low clouds.9 mph96%29.80 "Hg2 mi
6:00 PM53 °FDrizzle. Low clouds.8 mph94%29.79 "Hg8 mi
5:00 PM52 °FDrizzle. Low clouds.7 mph93%29.79 "Hg16 mi
4:00 PM52 °FDrizzle. Low clouds.7 mph95%29.79 "Hg5 mi
3:00 PM52 °FDrizzle. Low clouds.6 mph97%29.79 "Hg6 mi
2:00 PM51 °FDrizzle. Low clouds.6 mph96%29.80 "Hg4 mi
1:00 PM52 °FOvercast.6 mph89%29.80 "Hg43 mi
12:00 PM51 °FLow clouds.5 mph94%29.81 "Hg17 mi
11:00 AM51 °FDrizzle. Overcast.6 mph90%29.83 "Hg7 mi
10:00 AM51 °FOvercast.6 mph89%29.82 "Hg43 mi
9:00 AM50 °FOvercast.3 mph90%29.82 "Hg43 mi
8:00 AM49 °FOvercast.2 mph96%29.82 "Hg10 mi
7:00 AM48 °FOvercast.2 mph99%29.81 "Hg3 mi
6:00 AM49 °FDrizzle. Low clouds.3 mph99%29.82 "Hg1 mi
5:00 AM49 °FLow clouds.3 mph98%29.81 "Hg3 mi
4:00 AM48 °FLight freezing rain. Low clouds.3 mph99%29.81 "Hg1 mi
3:00 AM49 °FFog.3 mph95%29.82 "Hg3 mi
2:00 AM48 °FFog.5 mph96%29.81 "Hg3 mi
1:00 AM48 °FFog.5 mph97%29.80 "Hg2 mi
12:00 AM48 °FLow clouds.5 mph98%29.79 "Hg2 mi
Weather by CustomWeather, © 2014

See weather overviewHow to use our weather pages